FW0472 Weather Reports


Display with metric or nautical units.
time (UTC)temp
F
wind
direction
speed
MPH
gust
MPH
rain 1hr
in
rain 24hr
in
rain mn
in
humidity
%
barometer
mb
20260902124420 62 30 0.0 0.0 0.00 0.00 0.00 95 1048.0
20260902123914 62 10 0.0 0.0 0.00 0.00 0.00 95 1048.1
20260902123411 62 16 0.0 0.0 0.00 0.00 0.00 95 1048.2
20260902122909 62 2 0.0 0.0 0.00 0.00 0.00 95 1048.2
20260902122405 61 347 0.0 0.0 0.00 0.00 0.00 96 1048.3
20260902121900 61 3 0.0 0.0 0.00 0.00 0.00 96 1048.0
20260902121354 61 19 1.0 1.0 0.00 0.00 0.00 96 1048.1
20260902120844 62 8 0.0 0.0 0.00 0.00 0.00 96 1048.0
20260902120341 61 322 0.0 0.0 0.00 0.00 0.00 94 1048.1
20260902115840 61 325 0.0 0.0 0.00 0.00 0.00 95 1048.3
20260902115337 61 315 0.0 0.0 0.00 0.00 0.00 94 1048.1
20260902114833 61 319 0.0 0.0 0.00 0.00 0.00 95 1048.2
20260902114329 60 322 0.0 0.0 0.00 0.00 0.00 97 1048.1
20260902113828 61 3 0.0 0.0 0.00 0.00 0.00 98 1047.9
20260902113323 61 6 0.0 0.0 0.00 0.00 0.00 97 1048.3
20260902112817 61 357 0.0 0.0 0.00 0.00 0.00 97 1048.3
20260902112314 61 358 0.0 0.0 0.00 0.00 0.00 97 1048.5
20260902111809 61 348 0.0 0.0 0.00 0.00 0.00 96 1048.5
20260902111306 61 313 0.0 0.0 0.00 0.00 0.00 96 1048.4
20260902110801 61 326 0.0 0.0 0.00 0.00 0.00 97 1048.4
20260902110257 60 340 0.0 0.0 0.00 0.00 0.00 97 1048.5
20260902105756 60 350 0.0 0.0 0.00 0.00 0.00 97 1048.1
20260902105251 61 6 0.0 0.0 0.00 0.00 0.00 98 1048.0
20260902104747 60 349 0.0 0.0 0.00 0.00 0.00 98 1048.0
20260902104243 60 339 0.0 0.0 0.00 0.00 0.00 98 1048.1
20260902103742 60 341 0.0 0.0 0.00 0.00 0.00 98 1048.0
20260902103237 60 324 0.0 0.0 0.00 0.00 0.00 98 1047.9
20260902102732 60 342 0.0 0.0 0.00 0.00 0.00 98 1047.8
20260902102230 60 353 0.0 0.0 0.00 0.00 0.00 99 1047.9
20260902101726 60 345 0.0 0.0 0.00 0.00 0.00 99 1047.7
20260902101220 60 344 0.0 0.0 0.00 0.00 0.00 99 1047.7
20260902100719 60 358 0.0 0.0 0.00 0.00 0.00 99 1047.8
20260902100214 60 12 0.0 0.0 0.00 0.00 0.00 99 1047.7
20260902095714 61 356 0.0 0.0 0.00 0.00 0.00 99 1047.6
20260902095208 61 0 0.0 0.0 0.00 0.00 0.00 99 1047.8
20260902094703 61 357 0.0 0.0 0.00 0.00 0.00 99 1047.7
20260902094200 61 4 0.0 0.0 0.00 0.00 0.00 99 1047.8
20260902093658 61 14 0.0 0.0 0.00 0.00 0.00 99 1047.8
20260902093154 61 8 0.0 0.0 0.00 0.00 0.00 99 1047.9
20260902092648 61 338 0.0 0.0 0.00 0.00 0.00 99 1048.1
20260902092143 61 352 0.0 0.0 0.00 0.00 0.00 99 1047.6
20260902091638 60 2 0.0 0.0 0.00 0.00 0.00 99 1047.6
20260902091134 60 5 0.0 0.0 0.00 0.00 0.00 99 1047.5
20260902090630 61 14 0.0 0.0 0.00 0.00 0.00 99 1047.4
20260902090129 61 11 1.0 1.0 0.00 0.00 0.00 99 1047.5
20260902085624 60 14 0.0 0.0 0.00 0.00 0.00 99 1047.4
20260902085119 61 0 0.0 0.0 0.00 0.00 0.00 99 1047.5
20260902084615 61 358 0.0 0.0 0.00 0.00 0.00 99 1047.4
20260902084111 61 359 0.0 0.0 0.00 0.00 0.00 99 1047.5
20260902083606 61 351 0.0 0.0 0.00 0.00 0.00 99 1047.5
20260902083105 61 10 0.0 0.0 0.00 0.00 0.00 99 1047.5
20260902082601 61 27 0.0 0.0 0.00 0.00 0.00 99 1047.6
20260902082057 61 348 0.0 0.0 0.00 0.00 0.00 99 1047.6
20260902081554 61 355 0.0 0.0 0.00 0.00 0.00 99 1047.6
20260902081053 61 346 0.0 0.0 0.00 0.00 0.00 99 1047.5
20260902080548 61 343 0.0 0.0 0.00 0.00 0.00 99 1047.5
20260902080045 61 344 0.0 0.0 0.00 0.00 0.00 99 1047.5
20260902075544 61 348 0.0 0.0 0.00 0.00 0.00 99 1047.5
20260902075040 61 355 0.0 0.0 0.00 0.00 0.00 99 1047.8
20260902074536 61 353 0.0 0.0 0.00 0.00 0.00 99 1047.6
20260902074031 61 345 0.0 0.0 0.00 0.00 0.00 99 1047.9
20260902073526 61 352 0.0 0.0 0.00 0.00 0.00 99 1047.9
20260902073023 62 352 0.0 0.0 0.00 0.00 0.00 99 1047.7
20260902072518 62 347 0.0 0.0 0.00 0.00 0.00 99 1047.7
20260902072015 62 345 0.0 0.0 0.00 0.00 0.00 99 1047.7
20260902071514 62 351 0.0 1.0 0.00 0.00 0.00 99 1047.7
20260902071011 62 332 0.0 1.0 0.00 0.00 0.00 99 1047.7
20260902070506 62 323 0.0 0.0 0.00 0.00 0.00 99 1048.0
20260902070007 62 324 0.0 0.0 0.00 0.00 0.00 99 1047.8
20260902065500 62 324 0.0 0.0 0.00 0.00 0.00 99 1048.0
20260902064955 62 324 0.0 0.0 0.00 0.00 0.00 99 1047.9
20260902064450 62 324 0.0 0.0 0.00 0.00 0.00 99 1047.8
20260902063946 62 338 0.0 0.0 0.00 0.00 0.00 99 1047.7
20260902063440 62 328 0.0 0.0 0.00 0.00 0.00 99 1047.6
20260902062936 62 328 0.0 0.0 0.00 0.00 0.00 99 1047.5
20260902062434 62 319 0.0 0.0 0.00 0.00 0.00 99 1047.6
20260902061929 62 327 0.0 0.0 0.00 0.00 0.00 99 1047.4
20260902061424 62 329 0.0 0.0 0.00 0.00 0.00 99 1047.5
20260902060920 62 332 0.0 0.0 0.00 0.00 0.00 99 1047.5
20260902060416 62 331 0.0 0.0 0.00 0.00 0.00 99 1047.5
20260902055912 62 332 0.0 0.0 0.00 0.00 0.00 99 1047.2
20260902055408 62 332 0.0 0.0 0.00 0.00 0.00 99 1047.3
20260902054903 62 332 0.0 0.0 0.00 0.00 0.00 99 1047.2
20260902054358 62 332 0.0 0.0 0.00 0.00 0.00 99 1047.1
20260902053854 62 332 0.0 0.0 0.00 0.00 0.00 99 1047.4
20260902053349 62 326 0.0 0.0 0.00 0.00 0.00 99 1047.2
20260902052847 62 325 0.0 0.0 0.00 0.00 0.00 99 1047.1
20260902052343 62 340 0.0 0.0 0.00 0.00 0.00 99 1047.3
20260902051838 62 340 0.0 0.0 0.00 0.00 0.00 99 1047.1
20260902051337 62 340 0.0 0.0 0.00 0.00 0.00 99 1047.0
20260902050832 62 340 0.0 0.0 0.00 0.00 0.00 99 1046.9
20260902050331 62 341 0.0 0.0 0.00 0.00 0.00 99 1047.1
20260902045826 62 341 0.0 0.0 0.00 0.00 0.00 99 1047.0
20260902045322 62 341 0.0 0.0 0.00 0.00 0.00 99 1046.9
20260902044819 62 341 0.0 0.0 0.00 0.00 0.00 99 1046.9
20260902044314 62 341 0.0 0.0 0.00 0.00 0.00 99 1046.8
20260902043814 62 342 0.0 0.0 0.00 0.00 0.00 99 1046.8
20260902043309 62 342 0.0 0.0 0.00 0.00 0.00 99 1046.6
20260902042809 62 323 0.0 0.0 0.00 0.00 0.00 99 1046.6
20260902042308 62 323 0.0 0.0 0.00 0.00 0.00 99 1046.7
20260902041759 62 323 0.0 0.0 0.00 0.00 0.00 99 1046.3
20260902041258 62 324 0.0 0.0 0.00 0.00 0.00 99 1046.4
20260902040757 62 327 0.0 0.0 0.00 0.00 0.00 99 1046.4
20260902040254 62 352 0.0 0.0 0.00 0.00 0.00 99 1046.4
20260902035752 62 352 0.0 0.0 0.00 0.22 0.22 99 1046.4
20260902035248 62 352 0.0 0.0 0.00 0.22 0.22 99 1046.2
20260902034746 62 352 0.0 0.0 0.00 0.22 0.22 99 1046.2
20260902034242 62 352 0.0 0.0 0.00 0.22 0.22 99 1046.3
20260902033739 62 352 0.0 0.0 0.00 0.22 0.22 99 1046.2
20260902033235 62 343 0.0 0.0 0.00 0.22 0.22 99 1046.4
20260902032733 62 326 0.0 0.0 0.00 0.22 0.22 99 1046.3
20260902032229 62 313 0.0 1.0 0.00 0.22 0.22 99 1046.2
20260902031723 62 341 0.0 0.0 0.00 0.22 0.22 99 1046.3
20260902031218 63 342 0.0 0.0 0.00 0.22 0.22 99 1046.3
20260902030714 63 341 0.0 0.0 0.00 0.22 0.22 99 1046.3
20260902030214 63 341 0.0 0.0 0.00 0.22 0.22 99 1046.4
20260902025713 63 350 0.0 0.0 0.00 0.22 0.22 99 1046.3
20260902025208 63 349 1.0 1.0 0.00 0.22 0.22 99 1046.3
20260902024703 63 337 0.0 0.0 0.00 0.22 0.22 99 1046.0
20260902024158 63 328 0.0 0.0 0.00 0.22 0.22 99 1046.2
20260902023654 63 333 0.0 0.0 0.00 0.22 0.22 99 1046.2
20260902023149 63 329 0.0 0.0 0.07 0.22 0.22 99 1045.8
20260902022648 63 338 0.0 0.0 0.07 0.22 0.22 99 1045.8
20260902022144 63 335 0.0 0.0 0.07 0.22 0.22 99 1045.9
20260902021640 63 325 0.0 0.0 0.00 0.21 0.21 99 1045.9
20260902021134 63 323 0.0 0.0 0.00 0.21 0.21 99 1045.9
20260902020631 63 323 0.0 0.0 0.00 0.21 0.21 99 1045.8
20260902020126 63 342 0.0 0.0 0.00 0.21 0.21 99 1045.9
20260902015622 63 342 0.0 0.0 0.00 0.21 0.21 99 1045.8
20260902015118 63 343 0.0 0.0 0.00 0.21 0.21 99 1046.0
20260902014613 63 343 0.0 0.0 0.00 0.21 0.21 99 1046.1
20260902014109 63 342 0.0 0.0 0.00 0.21 0.21 99 1046.1
20260902013608 63 343 0.0 0.0 0.00 0.21 0.21 99 1045.9
20260902013104 63 344 0.0 0.0 0.00 0.21 0.21 99 1045.8
20260902012559 63 343 0.0 0.0 0.00 0.21 0.21 99 1045.8
20260902012054 63 328 0.0 0.0 0.00 0.21 0.21 99 1046.0
20260902011550 63 333 0.0 0.0 0.00 0.21 0.21 99 1045.8
20260902011049 63 321 0.0 0.0 0.05 0.21 0.21 99 1046.3
20260902010549 63 341 0.0 0.0 0.05 0.21 0.21 98 1046.2
20260902010045 63 348 0.0 0.0 0.05 0.21 0.21 98 1045.9
20260902005542 64 350 0.0 0.0 0.00 0.20 0.20 98 1045.8
20260902005039 64 350 0.0 0.0 0.00 0.20 0.20 97 1045.8
20260902004538 64 345 0.0 0.0 0.00 0.20 0.20 97 1046.0
20260902004033 64 354 0.0 0.0 0.00 0.20 0.20 96 1045.8
20260902003529 64 359 0.0 0.0 0.00 0.20 0.20 95 1046.0
20260902003024 64 321 0.0 0.0 0.00 0.20 0.20 95 1046.0
20260902002520 65 319 0.0 0.0 0.00 0.20 0.20 94 1045.9
20260902002015 65 321 0.0 0.0 0.00 0.20 0.20 94 1045.7
20260902001509 64 321 0.0 0.0 0.00 0.20 0.20 93 1045.7
20260902001004 64 321 0.0 0.0 0.00 0.20 0.20 94 1045.5
20260902000459 64 345 0.0 0.0 0.00 0.20 0.20 94 1045.3
20260901235954 64 345 0.0 0.0 0.00 0.20 0.20 94 1045.5
20260901235448 64 346 0.0 0.0 0.00 0.20 0.20 94 1045.3
20260901234944 64 351 0.0 0.0 0.00 0.20 0.20 94 1045.0
20260901234438 64 4 0.0 0.0 0.00 0.20 0.20 94 1045.3
20260901233933 64 343 0.0 0.0 0.00 0.20 0.20 94 1045.0
20260901233428 65 347 0.0 0.0 0.00 0.20 0.20 94 1045.2
20260901232925 65 347 0.0 0.0 0.00 0.20 0.20 94 1045.0
20260901232424 65 358 0.0 0.0 0.00 0.20 0.20 94 1044.9
20260901231920 65 358 0.0 0.0 0.00 0.20 0.20 93 1044.8
20260901231416 65 358 0.0 0.0 0.00 0.20 0.20 93 1045.2
20260901230913 65 350 0.0 0.0 0.00 0.20 0.20 93 1045.2
20260901230412 66 348 0.0 0.0 0.00 0.20 0.20 93 1045.0
20260901225907 66 348 0.0 0.0 0.00 0.20 0.20 93 1044.9
20260901225406 65 345 0.0 0.0 0.00 0.20 0.20 92 1044.9
20260901224901 66 354 0.0 0.0 0.00 0.20 0.20 92 1044.8
20260901224358 66 354 0.0 0.0 0.00 0.20 0.20 92 1044.9
20260901223854 66 347 0.0 0.0 0.00 0.20 0.20 92 1045.0
20260901223349 66 349 0.0 0.0 0.00 0.20 0.20 92 1044.9
20260901222845 66 0 0.0 0.0 0.00 0.20 0.20 93 1044.9
20260901222341 66 345 0.0 0.0 0.00 0.20 0.20 92 1044.9
20260901221837 66 330 0.0 0.0 0.00 0.20 0.20 90 1045.0
20260901221332 66 329 0.0 0.0 0.00 0.20 0.20 91 1045.3
20260901220832 66 345 0.0 0.0 0.00 0.20 0.20 91 1045.0
20260901220331 66 345 0.0 0.0 0.00 0.20 0.20 91 1045.0
20260901215830 66 1 0.0 0.0 0.00 0.20 0.20 91 1044.9
20260901215329 66 0 0.0 0.0 0.00 0.20 0.20 91 1044.9
20260901214828 66 4 0.0 0.0 0.00 0.20 0.20 92 1044.8
20260901214327 66 349 0.0 0.0 0.00 0.20 0.20 91 1044.9
20260901213822 66 28 0.0 0.0 0.00 0.20 0.20 90 1044.7
20260901213322 66 359 0.0 0.0 0.00 0.20 0.20 90 1044.9
20260901212816 66 5 0.0 0.0 0.00 0.20 0.20 90 1044.5
20260901212312 67 350 1.0 1.0 0.00 0.20 0.20 89 1044.6
20260901211807 67 34 1.0 1.0 0.00 0.20 0.20 90 1044.2
20260901211304 67 7 0.0 0.0 0.00 0.20 0.20 90 1044.5
20260901210759 67 25 0.0 0.0 0.00 0.20 0.20 89 1044.5
20260901210254 67 14 0.0 0.0 0.00 0.20 0.20 88 1044.6
20260901205751 67 322 0.0 0.0 0.00 0.20 0.20 87 1044.6
20260901205250 67 348 0.0 0.0 0.00 0.20 0.20 87 1044.5
20260901204746 67 18 0.0 0.0 0.00 0.20 0.20 87 1044.3
20260901204242 67 3 0.0 1.0 0.00 0.20 0.20 87 1044.3
20260901203737 67 344 0.0 0.0 0.00 0.20 0.20 88 1044.1
20260901203236 67 0 1.0 1.0 0.00 0.20 0.20 87 1043.9
20260901202736 67 30 1.0 1.0 0.00 0.20 0.20 87 1043.9
20260901202232 67 28 1.0 2.0 0.00 0.20 0.20 87 1043.9
20260901201727 67 0 1.0 1.0 0.00 0.20 0.20 87 1044.2
20260901201221 67 344 0.0 1.0 0.00 0.20 0.20 86 1044.2
20260901200720 67 5 1.0 1.0 0.00 0.20 0.20 85 1044.4
20260901200216 67 42 1.0 1.0 0.00 0.20 0.20 86 1044.2
20260901195714 67 69 2.0 2.0 0.00 0.20 0.20 86 1044.2
20260901195208 67 354 1.0 2.0 0.00 0.20 0.20 86 1044.0
20260901194704 67 9 1.0 1.0 0.00 0.20 0.20 87 1044.3
20260901194158 67 2 1.0 1.0 0.00 0.20 0.20 88 1043.9
20260901193655 67 51 1.0 2.0 0.00 0.20 0.20 87 1044.0
20260901193148 67 45 1.0 2.0 0.00 0.20 0.20 87 1044.0
20260901192643 67 19 1.0 1.0 0.00 0.20 0.20 87 1044.2
20260901192138 67 345 1.0 2.0 0.00 0.20 0.20 84 1044.1
20260901191634 67 34 1.0 2.0 0.00 0.20 0.20 86 1044.1
20260901191130 67 14 2.0 2.0 0.00 0.20 0.20 87 1044.1
20260901190626 67 22 1.0 2.0 0.00 0.20 0.20 86 1044.0
20260901190125 67 316 1.0 2.0 0.00 0.20 0.20 83 1044.2
20260901185623 66 345 1.0 1.0 0.00 0.20 0.20 85 1044.3
20260901185122 66 15 0.0 1.0 0.00 0.20 0.20 85 1044.3
20260901184618 66 326 0.0 0.0 0.00 0.20 0.20 87 1044.2
20260901184113 66 5 1.0 1.0 0.00 0.20 0.20 87 1044.4
20260901183608 66 13 1.0 1.0 0.00 0.20 0.20 86 1044.2
20260901183103 66 343 0.0 1.0 0.00 0.20 0.20 86 1044.5
20260901182559 66 8 1.0 1.0 0.00 0.20 0.20 85 1044.4
20260901182054 66 1 0.0 1.0 0.00 0.20 0.20 86 1044.6
20260901181553 66 350 0.0 0.0 0.00 0.20 0.20 85 1044.5
20260901181052 66 324 0.0 0.0 0.00 0.20 0.20 85 1044.4
20260901180551 66 350 0.0 0.0 0.00 0.20 0.20 85 1044.4
20260901180046 66 348 0.0 0.0 0.00 0.20 0.20 85 1044.1
20260901175540 66 345 0.0 0.0 0.00 0.20 0.20 86 1044.3
20260901175034 66 340 0.0 0.0 0.00 0.20 0.20 85 1044.3
20260901174531 66 318 0.0 0.0 0.00 0.20 0.20 83 1044.3
20260901174026 66 342 0.0 0.0 0.00 0.20 0.20 85 1044.5
20260901173521 65 323 0.0 0.0 0.00 0.20 0.20 84 1044.4
20260901173017 65 315 0.0 0.0 0.00 0.20 0.20 86 1044.1
20260901172512 64 340 0.0 0.0 0.00 0.20 0.20 87 1044.2
20260901172010 64 329 0.0 1.0 0.00 0.20 0.20 88 1044.1
20260901171509 64 12 1.0 1.0 0.00 0.20 0.20 89 1044.3
20260901171008 64 359 0.0 0.0 0.00 0.20 0.20 91 1044.2
20260901170503 64 6 1.0 1.0 0.00 0.20 0.20 91 1044.2
20260901170003 65 315 0.0 0.0 0.00 0.20 0.20 89 1044.0
20260901165457 65 323 0.0 0.0 0.00 0.20 0.20 87 1044.1
20260901164953 65 338 0.0 0.0 0.00 0.20 0.20 89 1044.1
20260901164448 65 62 1.0 2.0 0.00 0.20 0.20 89 1044.0
20260901163943 64 9 0.0 0.0 0.00 0.20 0.20 91 1044.1
20260901163438 63 325 0.0 0.0 0.00 0.20 0.20 94 1044.1
20260901162937 63 324 0.0 0.0 0.00 0.20 0.20 95 1044.1
20260901162432 63 354 0.0 0.0 0.00 0.20 0.20 94 1044.0
20260901161926 63 338 0.0 0.0 0.00 0.20 0.20 96 1044.1
20260901161425 62 347 0.0 0.0 0.00 0.20 0.20 95 1044.0
20260901160921 62 347 0.0 0.0 0.00 0.20 0.20 96 1044.2
20260901160416 62 344 0.0 0.0 0.00 0.20 0.20 95 1044.6
20260901155916 62 323 0.0 0.0 0.00 0.20 0.20 95 1044.5
20260901155416 62 323 0.0 0.0 0.00 0.20 0.20 96 1044.4
20260901154913 62 323 0.0 0.0 0.00 0.20 0.20 96 1044.5
20260901154411 61 323 0.0 0.0 0.00 0.20 0.20 96 1044.5
20260901153907 61 343 0.0 0.0 0.00 0.20 0.20 97 1044.8
20260901153406 60 334 0.0 0.0 0.00 0.20 0.20 97 1044.6
20260901152900 60 328 0.0 0.0 0.00 0.20 0.20 98 1044.6
20260901152355 60 312 0.0 1.0 0.00 0.20 0.20 99 1044.7
20260901151849 60 345 0.0 0.0 0.00 0.20 0.20 98 1044.7
20260901151344 60 355 0.0 0.0 0.00 0.20 0.20 99 1044.8
20260901150843 60 319 0.0 0.0 0.00 0.20 0.20 99 1044.6
20260901150341 61 334 0.0 0.0 0.00 0.20 0.20 99 1044.8
20260901145838 61 336 0.0 0.0 0.00 0.20 0.20 99 1044.6
20260901145333 60 330 0.0 0.0 0.00 0.20 0.20 99 1044.8
20260901144828 60 326 0.0 0.0 0.00 0.20 0.20 99 1045.0
20260901144324 60 336 0.0 0.0 0.00 0.20 0.20 99 1044.8
20260901143819 60 336 0.0 0.0 0.00 0.20 0.20 99 1044.9
20260901143316 60 326 0.0 0.0 0.00 0.20 0.20 99 1044.6
20260901142812 60 311 1.0 1.0 0.00 0.20 0.20 99 1044.6
20260901142310 60 335 0.0 0.0 0.00 0.20 0.20 99 1044.5
20260901141806 60 327 0.0 0.0 0.07 0.20 0.20 99 1044.4
20260901141301 59 324 0.0 0.0 0.07 0.20 0.20 99 1044.3
20260901140759 59 323 0.0 0.0 0.00 0.19 0.19 99 1044.3
20260901140258 59 317 1.0 1.0 0.00 0.19 0.19 99 1044.3
20260901135753 59 322 0.0 1.0 0.00 0.19 0.19 99 1044.4
20260901135253 59 322 0.0 1.0 0.00 0.19 0.19 99 1044.1
20260901134750 59 319 0.0 0.0 0.00 0.19 0.19 99 1044.4
20260901134248 59 307 0.0 0.0 0.00 0.19 0.19 99 1044.3
20260901133743 58 323 0.0 0.0 0.05 0.19 0.19 99 1044.4
20260901133243 58 325 0.0 0.0 0.05 0.19 0.19 99 1044.4
20260901132741 58 340 0.0 0.0 0.00 0.18 0.18 99 1044.6
20260901132236 58 327 0.0 0.0 0.00 0.18 0.18 99 1044.8
20260901131731 58 320 0.0 0.0 0.00 0.18 0.18 99 1044.9
20260901131230 58 323 0.0 0.0 0.00 0.18 0.18 99 1044.7
20260901130726 58 326 0.0 0.0 0.00 0.18 0.18 99 1044.6
20260901130225 57 319 0.0 0.0 0.00 0.18 0.18 99 1044.7
20260901125722 57 327 0.0 0.0 0.00 0.18 0.18 99 1044.8
20260901125218 57 323 0.0 0.0 0.00 0.18 0.18 99 1044.7
20260901124712 57 349 0.0 0.0 0.07 0.18 0.18 99 1044.8